THOR ABLESTAR DEB, 463

Orbit data source: Space-Track

THOR ABLESTAR DEB, 463 is space debris in LEO originally from a launch on Thu, 29 Jun 1961 UTC launched from the Air Force Eastern Test Range (AFETR). Debris objects in space refer to the collection of defunct objects orbiting the Earth. Examples of debris include non-operational satellites, rocket bodies, and fragments generated from explosions, collisions, or faulty payload assembly.

Loading next visibility...
Identifier
463, 1961-015EZ
Orbit
LEO
Country
Flag of USUS
Related business
Manufacturer
Unknown
Mission
Spacecraft
Bus & Motor
Unknown
Mass
Unknown
Launch date (UTC)
1961-06-29 (64 years ago)
Launch vehicle
Unknown
Launch site
Air Force Eastern Test Range (AFETR)
Object type
Payload
Rocket body
Debris
Shape & HBR
Unknown
Radar Cross Section
Small (<0.1 m²)

Expand to show TLE details & history
Last TLE update: 15 hours ago

TLE from 15 hours ago
0 THOR ABLESTAR DEB
1 00463U 61015EZ  25260.87156245  .00003196  00000-0  75227-3 0  9994
2 00463  66.7664  70.1957 0038303 110.9552 249.5666 14.55194519329476
Epoch: 2025-09-17T20:55Z
TLE epoch observation values (Epoch: 2025-09-17T20:55:02.995Z)
Latitude
0.00005°
Longitude
119.39195°
Altitude
720.439 km
Speed
7.491 km/s
True Right ascension
04h 40m 46s
True Declination
0° 00' 00"
Sunlit
Object was in daylight at epoch
Visualization orbit readout
Latitude
Unknown
Longitude
Unknown
Altitude
Unknown
Speed
Unknown
Apparent Right ascension
Unknown
Apparent Declination
Unknown
Sunlit
N/A
Visualization observer readout
Local Sidereal Time
04:51:03
Azimuth
Unknown
Elevation
Unknown
Doppler factor
Unknown
Orbital elements
Apogee altitude
734.22 km
Perigee altitude
679.943 km
Semi-major axis
7,085.218 km
Eccentricity
0.00383
Inclination
66.7664°
RAAN
70.1957°
Arg. of periapsis
110.9552°
True anomaly
249.15599°
Mean anomaly
249.5666°
Eccentric anomaly
249.36122°
Mean motion
3.63926 °/min
Orbital period
98.92 mins
BSTAR
0.00075227
Loading maneuver chart data...
Computing Atmospheric mass density...

Documentation

Showing up to 5 results
|